ATLAS 5 CENTAUR DEB, 46846

Orbit data source: Space-Track

ATLAS 5 CENTAUR DEB, 46846 is space debris in HEO originally from a launch on Wed, 17 Oct 2018 UTC launched from the Air Force Eastern Test Range (AFETR). Debris objects in space refer to the collection of defunct objects orbiting the Earth. Examples of debris include non-operational satellites, rocket bodies, and fragments generated from explosions, collisions, or faulty payload assembly.

Loading next visibility...
Identifier
46846, 2018-079DB
Orbit
HEO
Country
Flag of USUS
Related business
Flag of USUnited Launch Alliance/Lockheed Martin (US)
Manufacturer
ULA Decatur
Mission
Spacecraft
Bus & Motor
Unknown
Mass
Unknown
Launch date (UTC)
2018-10-17 (7 years ago)
Launch vehicle
Unknown
Launch site
Air Force Eastern Test Range (AFETR)
Object type
Payload
Rocket body
Debris
Shape & HBR
Unknown shape, 1.1 m
Radar Cross Section
RCS unknown

Expand to show TLE details & history
Last TLE update: 1 day ago

TLE from 1 day ago
0 ATLAS 5 CENTAUR DEB
1 46846U 18079DB  26072.48113248 -.00000129  00000-0  00000-0 0  9994
2 46846  12.3095  71.0006 4794299 251.2765  52.2878  1.71829827 33650
Epoch: 2026-03-13T11:32Z
TLE epoch observation values (Epoch: 2026-03-13T11:32:49.846Z)
Latitude
-0.00004°
Longitude
86.76808°
Altitude
20,406.783 km
Speed
4.028 km/s
True Right ascension
04h 44m 22s
True Declination
0° 00' 00"
Sunlit
Object was in daylight at epoch
Visualization orbit readout
Latitude
Unknown
Longitude
Unknown
Altitude
Unknown
Speed
Unknown
Apparent Right ascension
Unknown
Apparent Declination
Unknown
Sunlit
N/A
Visualization observer readout
Local Sidereal Time
22:21:52
Azimuth
Unknown
Elevation
Unknown
Doppler factor
Unknown
Orbital elements
Apogee altitude
37,185.876 km
Perigee altitude
8,950.824 km
Semi-major axis
29,446.487 km
Eccentricity
0.47943
Inclination
12.3095°
RAAN
71.0006°
Arg. of periapsis
251.2765°
True anomaly
108.79052°
Mean anomaly
52.2878°
Eccentric anomaly
79.27749°
Mean motion
0.42953 °/min
Orbital period
838.13 mins
BSTAR
0
Loading maneuver chart data...
Computing Atmospheric mass density...

Documentation

Showing up to 5 results
|